Weather History for KUKI - February, 2013

Change the Weather History Date:

Thursday, February 21, 2013

  Actual Average Record
Temperature  
Mean Temperature 45 °F 50 °F  
Max Temperature 58 °F 61 °F 79 °F (1981)
Min Temperature 32 °F 39 °F 26 °F (1911)
Degree Days  
Heating Degree Days 20 15  
Month to date heating degree days 356 333  
Since 1 July heating degree days 2024 2133  
Cooling Degree Days 0 0  
Month to date cooling degree days 0 0  
Year to date cooling degree days 0 0  
Moisture  
Dew Point 33 °F    
Average Humidity 61    
Maximum Humidity 92    
Minimum Humidity 30    
Precipitation  
Precipitation 0.00 in 0.27 in 2.01 in (1998)
Month to date precipitation 0.58 4.77  
Year to date precipitation 1.83 11.78  
Since 1 July precipitation 24.53  
Snow  
Snow 0.00 in - - ()
Month to date snowfall 0.0  
Since 1 July snowfall 0.0  
Snow Depth 0.00 in    
Sea Level Pressure  
Sea Level Pressure 30.15 in    
Wind  
Wind Speed 3 mph (NW)    
Max Wind Speed 15 mph    
Max Gust Speed 21 mph    
Visibility 10 miles    
Events      
T = Trace of Precipitation, MM = Missing Value Source: NWS Daily Summary

Daily Weather History Graph

Daily Weather History Graph

Search for Another Location

Airport or City:

Trip Planner

Search our weather history database for the weather conditions in past years. The results will help you decide how hot, cold, wet, or windy it might be!

Date:

Astronomy

Feb. 21, 2013 Rise Set
Actual Time 6:56 AM PST 5:57 PM PST
Civil Twilight 6:29 AM PST 6:24 PM PST
Nautical Twilight 5:57 AM PST 6:55 PM PST
Astronomical Twilight 5:27 AM PST 7:26 PM PST
Moon 2:18 PM PST (2/21) 4:03 AM PST (2/21)
Length of Visible Light 11h 55m
Length of Day
11h 00m
Waxing Gibbous, 84% of the Moon is Illuminated
Feb 21
Waxing Gibbous
Feb 25
Full
Mar 4
Last Quarter
Mar 11
New
Mar 19
First Quarter

Hourly Weather History & Observations

Time (PST) Temp. Windchill Dew Point Humidity Pressure Visibility Wind Dir Wind Speed Gust Speed Precip Events Conditions
12:56 AM 36.0 °F - 33.1 °F 89% 30.11 in 10.0 mi Calm Calm - N/A   Scattered Clouds
1:56 AM 34.0 °F - 30.9 °F 89% 30.11 in 10.0 mi Calm Calm - N/A   Clear
2:56 AM 34.0 °F - 30.9 °F 89% 30.11 in 10.0 mi Calm Calm - N/A   Clear
3:56 AM 34.0 °F - 30.0 °F 85% 30.11 in 10.0 mi Calm Calm - N/A   Clear
4:56 AM 33.1 °F 28.7 °F 30.0 °F 89% 30.12 in 10.0 mi Variable 4.6 mph - N/A   Clear
5:56 AM 34.0 °F - 30.9 °F 89% 30.12 in 10.0 mi Calm Calm - N/A   Clear
6:56 AM 33.1 °F - 30.0 °F 89% 30.15 in 10.0 mi Calm Calm - N/A   Clear
7:56 AM 36.0 °F 33.3 °F 32.0 °F 86% 30.18 in 10.0 mi NW 3.5 mph - N/A   Clear
8:56 AM 43.0 °F 41.3 °F 34.0 °F 71% 30.19 in 10.0 mi NNW 3.5 mph - N/A   Clear
9:56 AM 46.9 °F - 33.1 °F 59% 30.19 in 10.0 mi North 4.6 mph - N/A   Clear
10:56 AM 51.1 °F - 34.0 °F 52% 30.19 in 10.0 mi Calm Calm - N/A   Clear
11:56 AM 54.0 °F - 34.0 °F 47% 30.17 in 10.0 mi Calm Calm - N/A   Clear
12:56 PM 57.9 °F - 26.1 °F 30% 30.15 in 10.0 mi NNW 10.4 mph - N/A   Clear
1:56 PM 57.0 °F - 27.0 °F 32% 30.14 in 10.0 mi NW 9.2 mph - N/A   Clear
2:56 PM 57.9 °F - 32.0 °F 37% 30.12 in 10.0 mi WNW 5.8 mph - N/A   Clear
3:56 PM 57.0 °F - 34.0 °F 42% 30.11 in 10.0 mi NW 8.1 mph - N/A   Clear
4:56 PM 55.0 °F - 35.1 °F 47% 30.12 in 10.0 mi WNW 13.8 mph 20.7 mph N/A   Clear
5:56 PM 52.0 °F - 34.0 °F 50% 30.14 in 10.0 mi Variable 3.5 mph - N/A   Clear
6:56 PM 50.0 °F - 34.0 °F 54% 30.17 in 10.0 mi North 4.6 mph - N/A   Clear
7:56 PM 45.0 °F - 35.1 °F 68% 30.17 in 10.0 mi Calm Calm - N/A   Clear
8:56 PM 45.0 °F - 36.0 °F 71% 30.18 in 10.0 mi Calm Calm - N/A   Clear
9:56 PM 43.0 °F - 36.0 °F 76% 30.19 in 10.0 mi Calm Calm - N/A   Clear
10:56 PM 42.1 °F - 36.0 °F 79% 30.20 in 10.0 mi Calm Calm - N/A   Clear
11:56 PM 43.0 °F - 35.1 °F 74% 30.20 in 10.0 mi Calm Calm - N/A   Clear